sat.trackr.live / text

‹ back to catalog

STARLINK-2319

NORAD 47790 · 2021-018D

PAYLOAD ACTIVE UNKNOWN

§ Identity

Operator
Country
US
Launch date
2021-03-11
Launch site
AFETR
Launch vehicle
Mass (kg)
RCS (m²)

Purposes: comms

External: N2YO · Heavens-Above · Gunter

§ Orbital elements

Epoch: 2026-09-19T23:35:34.296576Z

Period
94.01 min
Inclination
53.1578°
Eccentricity
0.0001127
Mean motion
15.31703878 rev/d
Perigee alt
470.0 km
Apogee alt
471.5 km
Semi-major
6,848.9 km
B*
2.4600e-5
RAAN
32.4804°
Arg perigee
70.8893°
Mean anomaly
289.2230°
Rev number
30,687

§ Raw data

STARLINK-23191 47790U 21018D   26262.98303584  .00000398  00000+0  24600-4 0  99922 47790  53.1578  32.4804 0001127  70.8893 289.2230 15.31703878306878

JSON: /api/v1/satellites/47790 · /tle

For live sub-satellite position, see the globe view (requires WebGL).

§ Visibility from observer

Set your observer location to see the next 7 days of passes ≥ 10°. The values pass through the URL so the page stays shareable.

No JS? Fill the form by hand. The geolocation button needs JavaScript.